Home   Weather   Ndjamena   Past weeks

Flag for Chad Past Weather in Ndjamena, Chad — Yesterday and Last 2 Weeks

Now
91 °F

Passing clouds.


Feels Like: 97 °F
Forecast: 74 / 98 °F
Wind: 13 mph from Southwest

Location: Ndjamena

Current Time: Sep 29, 2016 at 1:05:21 PM

Latest Report: Sep 29, 2016 at 12:00 PM


Visibility: N/A

Pressure: 29.89 "Hg

Humidity: 49%

Dew Point: 70 °F

Location of NdjamenaLocation

Past Weather in Ndjamena — Graph

°F

Ndjamena Temperature Yesterday

Maximum temperature yesterday: 99 °F (at 2:00 PM)
Minimum temperature yesterday: 75 °F (at 3:00 AM)
Average temperature yesterday: 86 °F

High & Low Weather Summary for the Past Weeks

 TemperatureHumidityPressure
High99 °F (Sep 27, 3:00 PM)100% (Sep 15, 5:00 AM)29.98 "Hg (Sep 15, 5:00 AM)
Low72 °F (Sep 23, 6:00 AM)25% (Sep 28, 5:00 PM)29.71 "Hg (Sep 20, 3:00 PM)
Average83 °F75%29.85 "Hg
* Reported Sep 14 12:00 PM — Sep 29 12:00 PM, Ndjamena, Weather by CustomWeather, © 2016

Note: Actual official high and low records may vary slightly from our data, if they occured in-between our weather recording intervals... More about our weather records

Advertising

Ndjamena Weather History for the Previous 24 Hours

Scroll right to see more
 ConditionsComfort  
Time TempWeatherWind HumidityBarometerVisibility
12:00 PM
Thu, Sep 29
91 °FPassing clouds.13 mph49%29.89 "HgN/A
11:00 AM91 °FPassing clouds.9 mph52%29.92 "HgN/A
10:00 AM88 °FPassing clouds.8 mph62%29.95 "HgN/A
9:00 AM84 °FPassing clouds.6 mph66%29.92 "HgN/A
8:00 AM82 °FClear.7 mph79%29.92 "Hg5 mi
7:00 AM77 °FClear.No wind89%29.92 "Hg5 mi
6:00 AM75 °FClear.No wind89%29.89 "Hg5 mi
5:00 AM72 °FClear.No wind94%29.89 "Hg10 mi
4:00 AM73 °FClear.No wind100%29.86 "Hg10 mi
3:00 AM75 °FClear.No wind89%29.83 "Hg10 mi
2:00 AM77 °FClear.No wind74%29.86 "Hg10 mi
1:00 AM79 °FClear.7 mph70%29.86 "Hg5 mi
12:00 AM79 °FClear.6 mph65%29.86 "Hg5 mi
11:00 PM
Wed, Sep 28
79 °FClear.5 mph70%29.89 "Hg5 mi
10:00 PM81 °FClear.5 mph66%29.89 "Hg5 mi
9:00 PM79 °FClear.No wind70%29.86 "Hg5 mi
8:00 PM82 °FClear.No wind55%29.83 "Hg5 mi
7:00 PM86 °FClear.5 mph49%29.83 "Hg5 mi
6:00 PM88 °FClear.No wind46%29.80 "Hg4 mi
5:00 PM95 °FSunny.5 mph25%29.77 "Hg10 mi
4:00 PM97 °FSunny.3 mph42%29.80 "Hg10 mi
3:00 PM99 °FSunny.3 mph39%29.80 "Hg10 mi
2:00 PM99 °FPassing clouds.7 mph42%29.83 "HgN/A
1:00 PM97 °FPassing clouds.7 mph42%29.86 "HgN/A
Weather by CustomWeather, © 2016

See weather overviewHow to use our weather pages